Regional Weather Roundup
Issued by NWS Newport/Morehead, NC

Current Version | Previous Version | Text Only | Print | Product List | Glossary On
Versions: 1 2 3 4 5 6 7 8 9 10 11 12 13 14 15 16 17 18 19 20 21 22 23 24 25 26 27 28 29 30 31 32 33 34 35 36 37 38 39 40 41 42 43 44 45 46 47 48 49 50
000
ASUS42 KMHX 180613
RWRMHX
WEATHER ROUNDUP FOR EASTERN NORTH CAROLINA
NATIONAL WEATHER SERVICE NEWPORT/MOREHEAD CITY NC
100 AM EST WED JAN 18 2017

NOTE: "FAIR" INDICATES FEW OR NO CLOUDS BELOW 12,000 FEET
WITH NO SIGNIFICANT WEATHER AND/OR OBSTRUCTIONS TO VISIBILITY

NCZ015>017-031-032-045>047-102-103-180700-
NORTH COAST

CITY           SKY/WX    TMP DP  RH WIND       PRES   REMARKS
EDENTON        CLOUDY    61  56  83 CALM      30.00F
ELIZABETH CITY MOCLDY    57  55  93 S10       29.99F
KITTY HAWK     NOT AVBL
MANTEO         CLOUDY    56  56  99 S13       30.01F

$$

NCZ045>047-081-094-103-104-180700-
CENTRAL COAST

CITY           SKY/WX    TMP DP  RH WIND       PRES   REMARKS
FRISCO         CLOUDY    65  59  81 W12G20    30.04F HAZE

$$

NCZ095-097-098-100-101-180700-
SOUTHERN COAST

CITY           SKY/WX    TMP DP  RH WIND       PRES   REMARKS
BEAUFORT       CLEAR     63  59  87 SW16G24   30.05F
CEDAR ISLAND   NOT AVBL
JACKSONVILLE   PTCLDY    62  59  90 SW8       30.04F
PINEY ISLAND   PTCLDY   N/A N/A N/A SW14      30.04S
WILMINGTON     PTCLDY    61  58  90 SW10      30.07F


$$

NCZ011>013-027>030-043-044-078>080-089-090>093-098-180700-
COASTAL PLAIN

CITY           SKY/WX    TMP DP  RH WIND       PRES   REMARKS
AHOSKIE        PTCLDY    59  55  88 CALM      29.97F
CLINTON        PTCLDY    60  58  92 S5        30.03F
ELIZABETHTOWN  CLOUDY    61  58  89 SW8       30.04F
GOLDSBORO      CLOUDY    62  61  98 SW7       29.99F
GREENVILLE     CLOUDY    63  59  88 SW10G17   30.01F
HAVELOCK       CLOUDY    62  57  83 SW13G21   30.05F
KENANSVILLE    PTCLDY    61  57  88 SW7       30.03F
KINSTON        CLOUDY    62  57  85 S10       30.02F
NEW BERN       MOCLDY    60  56  86 SW10      30.04F
RICHLANDS      MOCLDY    59  57  93 SW10      30.05F
ROCKY MOUNT    CLOUDY    60  57  89 S7        29.99F
WASHINGTON     CLOUDY    61  56  85 SW9       30.01F
WHITEVILLE     PTCLDY    59  56  91 SW7       30.07F

$$

AMZ130-135-150-152-154-156-158-170-250-252-270-ANZ085-086-088-633-658-670-180700-
MARINE OBSERVATIONS

STATION/POSITION TIME  TEMP    WIND        PRES    WAVE   SWELL
                       AIR SEA DIR/SP/G            HT/PER HT/PER
                 (UTC) (F)     (DEG/KT/KT) (MB)    (FT/S) (FT/S)
CHESAPEAKE LIGHT NOT AVBL
64 E VA BEACH    0550   60 57  210/ 17/ 21 1014.3    4/ 5   2/ 8
DUCK             0548          220/ 12/ 18 1014.8
2 E DUCK         0530      45                N/A     1/11
OREGON INLET     0542   53 50  200/ 15/ 16 1016.3
13E OREGON INLT  NOT AVBL
HATTERAS CG      0542   65 54  240/ 10/ 13 1016.8
DIAMOND BUOY     0550   71 72  220/ 25/ 29 1015.5    4/ 5   2/10
CAPE LOOKOUT     0500   64     220/ 12/ 18 1018.0
BEAUFORT LAB     0542   61 50  220/  5/ 10 1016.7
30 SE NEW RVR IN 0508   62 62  240/ 12/ 16 1018.9
30 SE NEW RVR IN 0543      62                N/A     3/ 4
27 SE WRIGHTSVLE 0508   68 69  220/ 19/ 25 1018.5
5 SE WRIGHTSVLE  0508   58     220/ 12/ 17 1018.8
225 S CAPE HAT   0550   72 72  210/ 16/ 19 1021.7    3/ 4   2/ 8
41 SE CHARLESTON 0450   71 70  220/ 14/ 16 1020.6    3/ 9   2/ 9

$$



USA.gov is the U.S. government's official web portal to all federal, state and local government web resources and services.